nieuwe - new website meteo.heerschap.net

Tervuren markt Meer informatie Tervuren markt


Bezoek onze andere website:

Meteotemplate

Home Weather Station

Saratoga


Lokaal brand risico:
CBI


Regionaal brand risico: Meer informatie



Select another period ( hide this area )

Eenheden Periode Custom range Directly to
Metrisch Engels Beide
Dagelijkse Wekelijkse Maandelijkse Jaarlijkse
use both date-selectors for a custom range
previous Dag
With this date

WeatherUnderground graphs for this period ( click here )


Dagelijkse Samenvatting Donderdag 06 oktober 2022
Tijd Temp. ( °C ) Dew pt. ( °C ) Wind ( km/h ) van Vlaag ( km/h ) Luchtdruk ( hPa ) Humid.( % ) Rainrate ( cm )
Hoog17,3 12,6 21,0 ZW ( 620/1726 ) 24,0 1031,5 90 -
Gemiddeld13,3 9,4 8,0 ZW #75/216 12,0 1028,4 78 -
Laag9,0 7,2 -   0,0 1021,7 64 -
Dagelijkse Tabular details for Donderdag 06 oktober 2022
Tijd Temp. ( °C ) Dew pt. ( °C ) Wind ( km/h ) van Vlaag ( km/h ) Luchtdruk ( hPa ) Humid.( % ) Rainrate ( cm )
00:04 15,1 12,6 10,0 Zuiden 19,0 1021,7 85 -
00:09 15,1 12,6 8,0 ZW 16,0 1022,0 85 -
00:14 15,1 12,6 10,0 WZW 16,0 1022,0 85 -
00:19 15,1 12,6 10,0 Westen 16,0 1022,0 85 -
00:24 15,1 12,6 13,0 WZW 13,0 1022,0 85 -
00:29 14,9 12,4 6,0 WZW 13,0 1022,4 85 -
00:34 14,9 12,4 8,0 ZW 13,0 1022,4 85 -
00:39 14,8 12,3 13,0 ZW 13,0 1022,4 85 -
00:44 14,7 12,2 8,0 ZW 11,0 1022,4 85 -
00:49 14,6 11,9 8,0 ZW 19,0 1022,7 84 -
00:54 14,6 11,9 10,0 Westen 16,0 1022,7 84 -
00:59 14,4 11,7 3,0 ZW 13,0 1022,7 84 -
01:04 14,4 11,7 10,0 ZZW 13,0 1023,0 84 -
01:09 14,3 11,6 5,0 ZW 11,0 1023,0 84 -
01:14 14,2 11,5 11,0 Zuiden 16,0 1023,0 84 -
01:19 14,1 11,4 10,0 ZW 21,0 1023,0 84 -
01:24 14,1 11,3 14,0 WZW 19,0 1023,4 83 -
01:29 14,1 11,1 8,0 ZW 15,0 1023,4 82 -
01:34 14,1 11,1 8,0 ZW 13,0 1023,4 82 -
01:39 14,1 11,1 10,0 ZW 15,0 1023,7 82 -
01:44 13,9 10,7 8,0 WZW 10,0 1023,7 81 -
01:49 13,8 10,6 6,0 WZW 10,0 1023,7 81 -
01:54 13,6 10,4 14,0 WZW 15,0 1023,7 81 -
01:59 13,6 10,4 8,0 ZW 10,0 1023,7 81 -
02:04 13,4 10,0 6,0 ZW 11,0 1023,7 80 -
02:09 13,3 9,9 5,0 ZW 8,0 1024,0 80 -
02:14 13,2 9,8 6,0 ZW 13,0 1024,0 80 -
02:19 13,2 9,8 3,0 WZW 13,0 1024,4 80 -
02:24 13,1 9,7 5,0 ZW 13,0 1024,4 80 -
02:29 13,0 9,6 10,0 WZW 13,0 1024,4 80 -
02:34 12,9 9,5 11,0 ZW 13,0 1024,7 80 -
02:39 12,9 9,5 10,0 ZW 11,0 1024,7 80 -
02:44 12,8 9,4 10,0 ZW 15,0 1024,7 80 -
02:49 12,8 9,2 10,0 WZW 11,0 1024,7 79 -
02:54 12,8 9,2 3,0 ZW 10,0 1025,1 79 -
02:59 12,7 9,2 8,0 WZW 16,0 1025,1 79 -
03:04 12,7 9,2 5,0 ZW 10,0 1025,1 79 -
03:09 12,6 9,1 6,0 ZZW 13,0 1025,1 79 -
03:14 12,5 9,0 10,0 ZW 10,0 1025,1 79 -
03:19 12,4 9,0 6,0 WZW 10,0 1025,4 80 -
03:24 12,3 8,9 3,0 ZW 11,0 1025,4 80 -
03:29 12,2 8,9 8,0 ZZW 10,0 1025,4 80 -
03:34 12,2 8,9 3,0 ZW 10,0 1025,4 80 -
03:39 12,1 8,8 8,0 ZW 10,0 1025,7 80 -
03:44 12,1 8,8 6,0 ZW 15,0 1025,7 80 -
03:49 12,1 8,8 3,0 ZZW 13,0 1025,7 80 -
03:54 11,9 8,6 8,0 WZW 11,0 1025,7 80 -
03:59 11,9 8,6 6,0 ZW 11,0 1025,7 80 -
04:04 11,9 8,6 6,0 WZW 11,0 1025,7 80 -
04:09 11,8 8,5 5,0 ZW 13,0 1025,7 80 -
04:14 11,7 8,4 8,0 ZW 10,0 1025,7 80 -
04:19 11,6 8,3 6,0 ZZW 8,0 1025,7 80 -
04:24 11,5 8,2 6,0 ZW 11,0 1025,7 80 -
04:29 11,4 8,1 8,0 ZZW 10,0 1026,1 80 -
04:34 11,4 8,1 8,0 ZW 11,0 1026,1 80 -
04:39 11,3 8,0 3,0 ZW 11,0 1026,1 80 -
04:44 11,3 8,1 10,0 ZZW 10,0 1026,1 81 -
04:49 11,2 8,1 8,0 ZZW 10,0 1026,1 81 -
04:54 11,2 8,1 3,0 ZW 10,0 1026,1 81 -
04:59 11,1 8,0 3,0 ZZW 6,0 1026,1 81 -
05:04 11,1 8,0 3,0 ZW 8,0 1026,1 82 -
05:09 11,0 8,0 3,0 ZW 8,0 1026,4 82 -
05:14 10,9 7,9 6,0 ZZW 11,0 1026,8 82 -
05:19 10,9 7,9 5,0 WZW 10,0 1026,8 82 -
05:24 10,9 7,9 11,0 ZW 11,0 1026,8 82 -
05:29 10,9 8,1 3,0 ZW 11,0 1026,8 83 -
05:34 10,9 8,1 5,0 ZW 8,0 1026,8 83 -
05:39 10,8 8,0 3,0 ZW 6,0 1026,8 83 -
05:44 10,7 7,9 6,0 WZW 8,0 1026,8 83 -
05:49 10,7 8,1 1,0 ZW 8,0 1026,8 84 -
05:54 10,7 8,1 1,0 ZZW 5,0 1027,1 84 -
05:58 10,6 8,0 3,0 WZW 8,0 1027,1 84 -
06:04 10,6 8,0 6,0 ZW 8,0 1027,1 84 -
06:09 10,5 7,9 1,0 ZZW 8,0 1027,1 84 -
06:14 10,4 8,0 6,0 ZW 10,0 1027,4 85 -
06:19 10,4 8,0 5,0 ZZW 10,0 1027,4 85 -
06:24 10,3 7,9   Kalm 6,0 1027,4 85 -
06:29 10,3 7,9 1,0 ZZW 3,0 1027,8 85 -
06:34 10,2 7,8 3,0 Zuiden 6,0 1027,8 85 -
06:39 10,2 7,8 3,0 Zuiden 8,0 1027,8 85 -
06:44 10,1 7,9 1,0 ZW 6,0 1027,8 86 -
06:49 10,1 7,9 1,0 ZZW 8,0 1027,8 86 -
06:54 10,1 7,9 1,0 ZZW 6,0 1027,8 86 -
06:59 9,9 7,7 5,0 Zuiden 8,0 1027,8 86 -
07:04 9,9 7,7 3,0 ZZW 3,0 1028,1 86 -
07:09 9,8 7,6 1,0 ZZW 3,0 1028,1 86 -
07:14 9,8 7,7 5,0 ZZW 8,0 1028,5 87 -
07:18 9,8 7,7 1,0 ZZW 3,0 1028,5 87 -
07:24 9,7 7,5 3,0 ZZW 3,0 1028,5 86 -
07:29 9,6 7,5 5,0 ZZW 6,0 1028,5 87 -
07:34 9,6 7,5   Kalm 3,0 1028,5 87 -
07:39 9,5 7,4 1,0 ZZW 3,0 1028,5 87 -
07:44 9,4 7,3   Kalm   1028,5 87 -
07:49 9,3 7,2   Kalm 2,0 1028,5 87 -
07:54 9,2 7,3   Kalm 2,0 1028,5 88 -
07:59 9,1 7,2   Kalm 2,0 1028,5 88 -
08:04 9,1 7,2   Kalm   1028,8 88 -
08:09 9,1 7,2   Kalm 2,0 1028,8 88 -
08:14 9,1 7,3 3,0 ZZW 3,0 1028,8 89 -
08:19 9,0 7,3 1,0 Zuiden 3,0 1029,1 89 -
08:24 9,0 7,3   Kalm 3,0 1029,1 89 -
08:29 9,0 7,3 1,0 ZZW 3,0 1029,5 89 -
08:34 9,0 7,3   Kalm 2,0 1029,1 89 -
08:39 9,0 7,4 1,0 Zuiden 3,0 1029,1 90 -
08:44 9,2 7,6 1,0 Zuiden 3,0 1029,5 90 -
08:49 9,3 7,7 1,0 ZZW 8,0 1029,5 90 -
08:54 9,4 7,8 8,0 Zuiden 8,0 1029,5 90 -
08:59 9,5 7,9 1,0 Zuiden 3,0 1029,5 90 -
09:04 9,7 8,1 3,0 Zuiden 3,0 1029,5 90 -
09:09 9,8 8,2 8,0 ZZW 11,0 1029,5 90 -
09:14 10,0 8,3 3,0 ZZW 8,0 1029,5 89 -
09:19 10,2 8,5 3,0 Zuiden 8,0 1029,8 89 -
09:24 10,3 8,6 6,0 Zuiden 8,0 1029,8 89 -
09:29 10,5 8,6 5,0 ZZW 8,0 1029,8 88 -
09:34 10,7 8,8 10,0 ZZW 10,0 1029,8 88 -
09:39 10,9 8,8 8,0 ZZW 10,0 1030,1 87 -
09:44 11,2 8,9 11,0 ZW 11,0 1030,1 86 -
09:49 11,4 9,0 3,0 ZZW 11,0 1030,1 86 -
09:54 11,6 9,0 6,0 ZW 10,0 1030,1 85 -
09:59 11,8 9,1 8,0 ZZW 10,0 1030,5 84 -
10:04 12,1 9,3 1,0 ZW 8,0 1030,5 83 -
10:09 12,3 9,3 6,0 WZW 8,0 1030,5 82 -
10:14 12,6 9,3 8,0 Westen 10,0 1030,5 81 -
10:19 12,8 9,5 11,0 ZW 11,0 1030,5 81 -
10:24 13,0 9,4 3,0 ZW 10,0 1030,5 79 -
10:29 13,2 9,6 5,0 ZZW 15,0 1030,5 79 -
10:34 13,3 9,6 6,0 ZW 15,0 1030,8 79 -
10:39 13,4 9,8 6,0 WZW 10,0 1030,8 79 -
10:44 13,6 9,9 8,0 WZW 10,0 1030,8 79 -
10:49 13,6 9,8 6,0 WNW 10,0 1030,8 78 -
10:54 13,6 9,6 6,0 WZW 11,0 1031,2 77 -
10:59 13,7 9,8 8,0 WZW 13,0 1031,2 78 -
11:04 13,7 9,6 13,0 WZW 15,0 1031,2 77 -
11:09 13,6 9,6 11,0 Westen 15,0 1031,2 77 -
11:14 13,7 9,7 16,0 ZW 16,0 1031,2 77 -
11:19 13,7 9,7 14,0 ZW 19,0 1031,2 77 -
11:24 13,8 9,6 10,0 WZW 19,0 1031,5 76 -
11:29 13,8 9,6 11,0 WZW 15,0 1031,5 76 -
11:34 14,1 10,1 11,0 Westen 13,0 1031,5 77 -
11:39 14,3 9,7 13,0 ZW 16,0 1031,5 74 -
11:44 14,3 9,3 18,0 WZW 18,0 1031,5 72 -
11:49 14,4 9,3 16,0 WZW 16,0 1031,5 72 -
11:54 14,6 9,4 20,0 WZW 19,0 1031,5 71 -
11:59 14,6 9,0 14,0 ZW 19,0 1031,5 69 -
12:04 14,7 9,5 14,0 WZW 19,0 1031,5 71 -
12:09 14,7 9,3 13,0 WZW 19,0 1031,5 70 -
12:14 14,6 9,4 13,0 WZW 19,0 1031,5 71 -
12:19 14,7 9,5 13,0 WZW 15,0 1031,5 71 -
12:24 14,9 9,7 14,0 WZW 19,0 1031,5 71 -
12:29 15,0 9,8 13,0 Westen 16,0 1031,5 71 -
12:34 15,1 9,7 14,0 WZW 18,0 1031,5 70 -
12:39 15,0 9,6 16,0 WZW 18,0 1031,5 70 -
12:44 15,1 9,9 11,0 Westen 18,0 1031,5 71 -
12:49 15,2 9,5 10,0 WZW 18,0 1031,5 69 -
12:54 15,3 9,6 18,0 Westen 21,0 1031,5 69 -
12:59 15,3 9,6 16,0 Westen 18,0 1031,5 69 -
13:04 15,3 9,4 13,0 Westen 16,0 1031,5 68 -
13:09 15,4 9,3 11,0 WZW 24,0 1031,5 67 -
13:14 15,4 9,4 13,0 WZW 24,0 1031,5 68 -
13:18 15,4 9,3 11,0 ZW 19,0 1031,5 67 -
13:24 15,6 9,7 11,0 Westen 15,0 1031,5 68 -
13:29 15,7 9,7 14,0 WZW 19,0 1031,5 68 -
13:34 15,7 9,8 13,0 Westen 19,0 1031,5 68 -
13:39 15,7 9,8 14,0 Westen 16,0 1031,5 68 -
13:44 15,8 9,9 11,0 ZW 18,0 1031,5 68 -
13:49 15,9 9,8 14,0 ZW 19,0 1031,2 67 -
13:54 16,0 9,9 16,0 ZW 21,0 1031,5 67 -
13:59 16,2 10,0 20,0 ZW 19,0 1031,5 67 -
14:04 16,2 10,1 21,0 ZW 21,0 1031,2 67 -
14:09 16,2 9,8 13,0 WZW 16,0 1031,2 66 -
14:14 16,2 9,6 13,0 Westen 19,0 1031,2 65 -
14:19 16,2 9,6 13,0 Westen 21,0 1031,2 65 -
14:24 16,3 9,9 18,0 Westen 19,0 1031,2 66 -
14:29 16,3 9,9 14,0 Westen 18,0 1031,2 66 -
14:34 16,2 9,6 11,0 Westen 16,0 1031,2 65 -
14:39 16,3 9,9 11,0 Westen 18,0 1031,2 66 -
14:44 16,3 9,9 14,0 WZW 15,0 1031,2 66 -
14:49 16,6 10,0 10,0 ZW 13,0 1031,2 66 -
14:54 16,8 10,0 16,0 ZW 18,0 1031,2 65 -
14:59 16,8 10,2 14,0 ZZW 18,0 1031,2 65 -
15:04 16,9 10,2 20,0 ZZW 23,0 1031,2 65 -
15:09 16,7 9,9 13,0 ZW 19,0 1031,2 64 -
15:14 16,7 10,1 20,0 WZW 19,0 1031,2 65 -
15:19 16,5 9,5 16,0 WZW 18,0 1031,2 64 -
15:24 16,4 9,7 13,0 WZW 15,0 1031,2 65 -
15:29 16,6 9,8 11,0 WZW 18,0 1031,2 64 -
15:34 16,8 10,4 8,0 WZW 18,0 1030,8 66 -
15:38 16,8 10,4 11,0 Westen 15,0 1030,8 66 -
15:44 16,6 10,0 11,0 Westen 15,0 1030,8 65 -
15:49 16,7 10,0 10,0 WNW 15,0 1030,8 65 -
15:54 16,6 10,4 8,0 Westen 11,0 1030,8 67 -
15:59 16,9 10,6 8,0 Westen 10,0 1030,8 67 -
16:04 17,2 11,0 10,0 WZW 11,0 1030,8 67 -
16:09 17,2 10,8 13,0 ZW 19,0 1030,8 66 -
16:14 17,1 10,5 11,0 ZW 19,0 1030,8 65 -
16:19 17,2 10,3 11,0 ZW 15,0 1030,8 64 -
16:24 17,3 10,7 11,0 ZZW 15,0 1030,8 65 -
16:29 17,2 10,8 14,0 ZW 16,0 1030,8 66 -
16:34 17,2 10,6 11,0 ZZW 16,0 1030,8 65 -
16:39 16,9 10,3 11,0 ZW 16,0 1030,8 66 -
16:44 16,6 10,2 10,0 ZW 11,0 1030,8 67 -
16:49 16,2 10,5 10,0 WZW 11,0 1030,8 69 -
16:54 16,6 10,7 8,0 ZW 10,0 1030,5 69 -
16:59 16,8 10,6 3,0 ZZW 8,0 1030,5 67 -
17:03 17,0 10,6 10,0 Westen 15,0 1030,5 66 -
17:09 16,9 10,6 10,0 ZW 15,0 1030,5 67 -
17:14 16,4 10,3 8,0 ZW 10,0 1030,5 67 -
17:19 16,1 10,4 8,0 ZZW 10,0 1030,5 69 -
17:24 15,9 10,2 6,0 ZW 10,0 1030,5 69 -
17:29 15,9 10,4 6,0 ZW 8,0 1030,5 70 -
17:34 15,9 10,4 8,0 ZW 8,0 1030,5 70 -
17:39 16,0 10,3 8,0 ZW 8,0 1030,1 69 -
17:44 16,2 10,7 6,0 WZW 6,0 1030,1 70 -
17:49 16,6 10,7 1,0 WZW 6,0 1030,5 69 -
17:54 16,7 11,0 3,0 WZW 5,0 1030,1 69 -
17:59 16,7 10,8   Kalm 5,0 1030,1 68 -
Dagelijkse Samenvatting Donderdag 06 oktober 2022
Tijd Temp. ( °C ) Dew pt. ( °C ) Wind ( km/h ) van Vlaag ( km/h ) Luchtdruk ( hPa ) Humid.( % ) Rainrate ( cm )
Hoog17,3 12,6 21,0 ZW ( 620/1726 ) 24,0 1031,5 90 -
Gemiddeld13,3 9,4 8,0 ZW #75/216 12,0 1028,4 78 -
Laag9,0 7,2 -   0,0 1021,7 64 -
Dagelijkse Tabular details for Donderdag 06 oktober 2022
Tijd Temp. ( °C ) Dew pt. ( °C ) Wind ( km/h ) van Vlaag ( km/h ) Luchtdruk ( hPa ) Humid.( % ) Rainrate ( cm )
00:04 15,1 12,6 10,0 Zuiden 19,0 1021,7 85 -
00:09 15,1 12,6 8,0 ZW 16,0 1022,0 85 -
00:14 15,1 12,6 10,0 WZW 16,0 1022,0 85 -
00:19 15,1 12,6 10,0 Westen 16,0 1022,0 85 -
00:24 15,1 12,6 13,0 WZW 13,0 1022,0 85 -
00:29 14,9 12,4 6,0 WZW 13,0 1022,4 85 -
00:34 14,9 12,4 8,0 ZW 13,0 1022,4 85 -
00:39 14,8 12,3 13,0 ZW 13,0 1022,4 85 -
00:44 14,7 12,2 8,0 ZW 11,0 1022,4 85 -
00:49 14,6 11,9 8,0 ZW 19,0 1022,7 84 -
00:54 14,6 11,9 10,0 Westen 16,0 1022,7 84 -
00:59 14,4 11,7 3,0 ZW 13,0 1022,7 84 -
01:04 14,4 11,7 10,0 ZZW 13,0 1023,0 84 -
01:09 14,3 11,6 5,0 ZW 11,0 1023,0 84 -
01:14 14,2 11,5 11,0 Zuiden 16,0 1023,0 84 -
01:19 14,1 11,4 10,0 ZW 21,0 1023,0 84 -
01:24 14,1 11,3 14,0 WZW 19,0 1023,4 83 -
01:29 14,1 11,1 8,0 ZW 15,0 1023,4 82 -
01:34 14,1 11,1 8,0 ZW 13,0 1023,4 82 -
01:39 14,1 11,1 10,0 ZW 15,0 1023,7 82 -
01:44 13,9 10,7 8,0 WZW 10,0 1023,7 81 -
01:49 13,8 10,6 6,0 WZW 10,0 1023,7 81 -
01:54 13,6 10,4 14,0 WZW 15,0 1023,7 81 -
01:59 13,6 10,4 8,0 ZW 10,0 1023,7 81 -
02:04 13,4 10,0 6,0 ZW 11,0 1023,7 80 -
02:09 13,3 9,9 5,0 ZW 8,0 1024,0 80 -
02:14 13,2 9,8 6,0 ZW 13,0 1024,0 80 -
02:19 13,2 9,8 3,0 WZW 13,0 1024,4 80 -
02:24 13,1 9,7 5,0 ZW 13,0 1024,4 80 -
02:29 13,0 9,6 10,0 WZW 13,0 1024,4 80 -
02:34 12,9 9,5 11,0 ZW 13,0 1024,7 80 -
02:39 12,9 9,5 10,0 ZW 11,0 1024,7 80 -
02:44 12,8 9,4 10,0 ZW 15,0 1024,7 80 -
02:49 12,8 9,2 10,0 WZW 11,0 1024,7 79 -
02:54 12,8 9,2 3,0 ZW 10,0 1025,1 79 -
02:59 12,7 9,2 8,0 WZW 16,0 1025,1 79 -
03:04 12,7 9,2 5,0 ZW 10,0 1025,1 79 -
03:09 12,6 9,1 6,0 ZZW 13,0 1025,1 79 -
03:14 12,5 9,0 10,0 ZW 10,0 1025,1 79 -
03:19 12,4 9,0 6,0 WZW 10,0 1025,4 80 -
03:24 12,3 8,9 3,0 ZW 11,0 1025,4 80 -
03:29 12,2 8,9 8,0 ZZW 10,0 1025,4 80 -
03:34 12,2 8,9 3,0 ZW 10,0 1025,4 80 -
03:39 12,1 8,8 8,0 ZW 10,0 1025,7 80 -
03:44 12,1 8,8 6,0 ZW 15,0 1025,7 80 -
03:49 12,1 8,8 3,0 ZZW 13,0 1025,7 80 -
03:54 11,9 8,6 8,0 WZW 11,0 1025,7 80 -
03:59 11,9 8,6 6,0 ZW 11,0 1025,7 80 -
04:04 11,9 8,6 6,0 WZW 11,0 1025,7 80 -
04:09 11,8 8,5 5,0 ZW 13,0 1025,7 80 -
04:14 11,7 8,4 8,0 ZW 10,0 1025,7 80 -
04:19 11,6 8,3 6,0 ZZW 8,0 1025,7 80 -
04:24 11,5 8,2 6,0 ZW 11,0 1025,7 80 -
04:29 11,4 8,1 8,0 ZZW 10,0 1026,1 80 -
04:34 11,4 8,1 8,0 ZW 11,0 1026,1 80 -
04:39 11,3 8,0 3,0 ZW 11,0 1026,1 80 -
04:44 11,3 8,1 10,0 ZZW 10,0 1026,1 81 -
04:49 11,2 8,1 8,0 ZZW 10,0 1026,1 81 -
04:54 11,2 8,1 3,0 ZW 10,0 1026,1 81 -
04:59 11,1 8,0 3,0 ZZW 6,0 1026,1 81 -
05:04 11,1 8,0 3,0 ZW 8,0 1026,1 82 -
05:09 11,0 8,0 3,0 ZW 8,0 1026,4 82 -
05:14 10,9 7,9 6,0 ZZW 11,0 1026,8 82 -
05:19 10,9 7,9 5,0 WZW 10,0 1026,8 82 -
05:24 10,9 7,9 11,0 ZW 11,0 1026,8 82 -
05:29 10,9 8,1 3,0 ZW 11,0 1026,8 83 -
05:34 10,9 8,1 5,0 ZW 8,0 1026,8 83 -
05:39 10,8 8,0 3,0 ZW 6,0 1026,8 83 -
05:44 10,7 7,9 6,0 WZW 8,0 1026,8 83 -
05:49 10,7 8,1 1,0 ZW 8,0 1026,8 84 -
05:54 10,7 8,1 1,0 ZZW 5,0 1027,1 84 -
05:58 10,6 8,0 3,0 WZW 8,0 1027,1 84 -
06:04 10,6 8,0 6,0 ZW 8,0 1027,1 84 -
06:09 10,5 7,9 1,0 ZZW 8,0 1027,1 84 -
06:14 10,4 8,0 6,0 ZW 10,0 1027,4 85 -
06:19 10,4 8,0 5,0 ZZW 10,0 1027,4 85 -
06:24 10,3 7,9   Kalm 6,0 1027,4 85 -
06:29 10,3 7,9 1,0 ZZW 3,0 1027,8 85 -
06:34 10,2 7,8 3,0 Zuiden 6,0 1027,8 85 -
06:39 10,2 7,8 3,0 Zuiden 8,0 1027,8 85 -
06:44 10,1 7,9 1,0 ZW 6,0 1027,8 86 -
06:49 10,1 7,9 1,0 ZZW 8,0 1027,8 86 -
06:54 10,1 7,9 1,0 ZZW 6,0 1027,8 86 -
06:59 9,9 7,7 5,0 Zuiden 8,0 1027,8 86 -
07:04 9,9 7,7 3,0 ZZW 3,0 1028,1 86 -
07:09 9,8 7,6 1,0 ZZW 3,0 1028,1 86 -
07:14 9,8 7,7 5,0 ZZW 8,0 1028,5 87 -
07:18 9,8 7,7 1,0 ZZW 3,0 1028,5 87 -
07:24 9,7 7,5 3,0 ZZW 3,0 1028,5 86 -
07:29 9,6 7,5 5,0 ZZW 6,0 1028,5 87 -
07:34 9,6 7,5   Kalm 3,0 1028,5 87 -
07:39 9,5 7,4 1,0 ZZW 3,0 1028,5 87 -
07:44 9,4 7,3   Kalm   1028,5 87 -
07:49 9,3 7,2   Kalm 2,0 1028,5 87 -
07:54 9,2 7,3   Kalm 2,0 1028,5 88 -
07:59 9,1 7,2   Kalm 2,0 1028,5 88 -
08:04 9,1 7,2   Kalm   1028,8 88 -
08:09 9,1 7,2   Kalm 2,0 1028,8 88 -
08:14 9,1 7,3 3,0 ZZW 3,0 1028,8 89 -
08:19 9,0 7,3 1,0 Zuiden 3,0 1029,1 89 -
08:24 9,0 7,3   Kalm 3,0 1029,1 89 -
08:29 9,0 7,3 1,0 ZZW 3,0 1029,5 89 -
08:34 9,0 7,3   Kalm 2,0 1029,1 89 -
08:39 9,0 7,4 1,0 Zuiden 3,0 1029,1 90 -
08:44 9,2 7,6 1,0 Zuiden 3,0 1029,5 90 -
08:49 9,3 7,7 1,0 ZZW 8,0 1029,5 90 -
08:54 9,4 7,8 8,0 Zuiden 8,0 1029,5 90 -
08:59 9,5 7,9 1,0 Zuiden 3,0 1029,5 90 -
09:04 9,7 8,1 3,0 Zuiden 3,0 1029,5 90 -
09:09 9,8 8,2 8,0 ZZW 11,0 1029,5 90 -
09:14 10,0 8,3 3,0 ZZW 8,0 1029,5 89 -
09:19 10,2 8,5 3,0 Zuiden 8,0 1029,8 89 -
09:24 10,3 8,6 6,0 Zuiden 8,0 1029,8 89 -
09:29 10,5 8,6 5,0 ZZW 8,0 1029,8 88 -
09:34 10,7 8,8 10,0 ZZW 10,0 1029,8 88 -
09:39 10,9 8,8 8,0 ZZW 10,0 1030,1 87 -
09:44 11,2 8,9 11,0 ZW 11,0 1030,1 86 -
09:49 11,4 9,0 3,0 ZZW 11,0 1030,1 86 -
09:54 11,6 9,0 6,0 ZW 10,0 1030,1 85 -
09:59 11,8 9,1 8,0 ZZW 10,0 1030,5 84 -
10:04 12,1 9,3 1,0 ZW 8,0 1030,5 83 -
10:09 12,3 9,3 6,0 WZW 8,0 1030,5 82 -
10:14 12,6 9,3 8,0 Westen 10,0 1030,5 81 -
10:19 12,8 9,5 11,0 ZW 11,0 1030,5 81 -
10:24 13,0 9,4 3,0 ZW 10,0 1030,5 79 -
10:29 13,2 9,6 5,0 ZZW 15,0 1030,5 79 -
10:34 13,3 9,6 6,0 ZW 15,0 1030,8 79 -
10:39 13,4 9,8 6,0 WZW 10,0 1030,8 79 -
10:44 13,6 9,9 8,0 WZW 10,0 1030,8 79 -
10:49 13,6 9,8 6,0 WNW 10,0 1030,8 78 -
10:54 13,6 9,6 6,0 WZW 11,0 1031,2 77 -
10:59 13,7 9,8 8,0 WZW 13,0 1031,2 78 -
11:04 13,7 9,6 13,0 WZW 15,0 1031,2 77 -
11:09 13,6 9,6 11,0 Westen 15,0 1031,2 77 -
11:14 13,7 9,7 16,0 ZW 16,0 1031,2 77 -
11:19 13,7 9,7 14,0 ZW 19,0 1031,2 77 -
11:24 13,8 9,6 10,0 WZW 19,0 1031,5 76 -
11:29 13,8 9,6 11,0 WZW 15,0 1031,5 76 -
11:34 14,1 10,1 11,0 Westen 13,0 1031,5 77 -
11:39 14,3 9,7 13,0 ZW 16,0 1031,5 74 -
11:44 14,3 9,3 18,0 WZW 18,0 1031,5 72 -
11:49 14,4 9,3 16,0 WZW 16,0 1031,5 72 -
11:54 14,6 9,4 20,0 WZW 19,0 1031,5 71 -
11:59 14,6 9,0 14,0 ZW 19,0 1031,5 69 -
12:04 14,7 9,5 14,0 WZW 19,0 1031,5 71 -
12:09 14,7 9,3 13,0 WZW 19,0 1031,5 70 -
12:14 14,6 9,4 13,0 WZW 19,0 1031,5 71 -
12:19 14,7 9,5 13,0 WZW 15,0 1031,5 71 -
12:24 14,9 9,7 14,0 WZW 19,0 1031,5 71 -
12:29 15,0 9,8 13,0 Westen 16,0 1031,5 71 -
12:34 15,1 9,7 14,0 WZW 18,0 1031,5 70 -
12:39 15,0 9,6 16,0 WZW 18,0 1031,5 70 -
12:44 15,1 9,9 11,0 Westen 18,0 1031,5 71 -
12:49 15,2 9,5 10,0 WZW 18,0 1031,5 69 -
12:54 15,3 9,6 18,0 Westen 21,0 1031,5 69 -
12:59 15,3 9,6 16,0 Westen 18,0 1031,5 69 -
13:04 15,3 9,4 13,0 Westen 16,0 1031,5 68 -
13:09 15,4 9,3 11,0 WZW 24,0 1031,5 67 -
13:14 15,4 9,4 13,0 WZW 24,0 1031,5 68 -
13:18 15,4 9,3 11,0 ZW 19,0 1031,5 67 -
13:24 15,6 9,7 11,0 Westen 15,0 1031,5 68 -
13:29 15,7 9,7 14,0 WZW 19,0 1031,5 68 -
13:34 15,7 9,8 13,0 Westen 19,0 1031,5 68 -
13:39 15,7 9,8 14,0 Westen 16,0 1031,5 68 -
13:44 15,8 9,9 11,0 ZW 18,0 1031,5 68 -
13:49 15,9 9,8 14,0 ZW 19,0 1031,2 67 -
13:54 16,0 9,9 16,0 ZW 21,0 1031,5 67 -
13:59 16,2 10,0 20,0 ZW 19,0 1031,5 67 -
14:04 16,2 10,1 21,0 ZW 21,0 1031,2 67 -
14:09 16,2 9,8 13,0 WZW 16,0 1031,2 66 -
14:14 16,2 9,6 13,0 Westen 19,0 1031,2 65 -
14:19 16,2 9,6 13,0 Westen 21,0 1031,2 65 -
14:24 16,3 9,9 18,0 Westen 19,0 1031,2 66 -
14:29 16,3 9,9 14,0 Westen 18,0 1031,2 66 -
14:34 16,2 9,6 11,0 Westen 16,0 1031,2 65 -
14:39 16,3 9,9 11,0 Westen 18,0 1031,2 66 -
14:44 16,3 9,9 14,0 WZW 15,0 1031,2 66 -
14:49 16,6 10,0 10,0 ZW 13,0 1031,2 66 -
14:54 16,8 10,0 16,0 ZW 18,0 1031,2 65 -
14:59 16,8 10,2 14,0 ZZW 18,0 1031,2 65 -
15:04 16,9 10,2 20,0 ZZW 23,0 1031,2 65 -
15:09 16,7 9,9 13,0 ZW 19,0 1031,2 64 -
15:14 16,7 10,1 20,0 WZW 19,0 1031,2 65 -
15:19 16,5 9,5 16,0 WZW 18,0 1031,2 64 -
15:24 16,4 9,7 13,0 WZW 15,0 1031,2 65 -
15:29 16,6 9,8 11,0 WZW 18,0 1031,2 64 -
15:34 16,8 10,4 8,0 WZW 18,0 1030,8 66 -
15:38 16,8 10,4 11,0 Westen 15,0 1030,8 66 -
15:44 16,6 10,0 11,0 Westen 15,0 1030,8 65 -
15:49 16,7 10,0 10,0 WNW 15,0 1030,8 65 -
15:54 16,6 10,4 8,0 Westen 11,0 1030,8 67 -
15:59 16,9 10,6 8,0 Westen 10,0 1030,8 67 -
16:04 17,2 11,0 10,0 WZW 11,0 1030,8 67 -
16:09 17,2 10,8 13,0 ZW 19,0 1030,8 66 -
16:14 17,1 10,5 11,0 ZW 19,0 1030,8 65 -
16:19 17,2 10,3 11,0 ZW 15,0 1030,8 64 -
16:24 17,3 10,7 11,0 ZZW 15,0 1030,8 65 -
16:29 17,2 10,8 14,0 ZW 16,0 1030,8 66 -
16:34 17,2 10,6 11,0 ZZW 16,0 1030,8 65 -
16:39 16,9 10,3 11,0 ZW 16,0 1030,8 66 -
16:44 16,6 10,2 10,0 ZW 11,0 1030,8 67 -
16:49 16,2 10,5 10,0 WZW 11,0 1030,8 69 -
16:54 16,6 10,7 8,0 ZW 10,0 1030,5 69 -
16:59 16,8 10,6 3,0 ZZW 8,0 1030,5 67 -
17:03 17,0 10,6 10,0 Westen 15,0 1030,5 66 -
17:09 16,9 10,6 10,0 ZW 15,0 1030,5 67 -
17:14 16,4 10,3 8,0 ZW 10,0 1030,5 67 -
17:19 16,1 10,4 8,0 ZZW 10,0 1030,5 69 -
17:24 15,9 10,2 6,0 ZW 10,0 1030,5 69 -
17:29 15,9 10,4 6,0 ZW 8,0 1030,5 70 -
17:34 15,9 10,4 8,0 ZW 8,0 1030,5 70 -
17:39 16,0 10,3 8,0 ZW 8,0 1030,1 69 -
17:44 16,2 10,7 6,0 WZW 6,0 1030,1 70 -
17:49 16,6 10,7 1,0 WZW 6,0 1030,5 69 -
17:54 16,7 11,0 3,0 WZW 5,0 1030,1 69 -
17:59 16,7 10,8   Kalm 5,0 1030,1 68 -

Download your copy of this data-set  here

Our weather-data as stored at Weather Underground. Script ontwikkeld door Jim McMurry. Aangepast voor de template door Leuven-Template.eu

U vindt ons ook hier:

Het Weer Aktueel

UK Metoffice

European Weather Network

WeatherCloud

Weather Underground

Benelux Weer Netwerk

AWEKAS

Citizen Weather Observer Program (CWOP)

HAMweather, WeatherForYou, PWS Weather

Apparatuur in gebruik:

Weerstation
Davis VP2

Weerprogramma
Meteobridge

Weercomputer
Meteobridge NANO

Davis VP2

Meteobridge

Meteobridge NANO